Time,TemperatureF,DewpointF,PressureIn,WindDirection,WindDirectionDegrees,WindSpeedMPH,WindSpeedGustMPH,Humidity,HourlyPrecipIn,Conditions,Clouds,dailyrainin,SoftwareType,DateUTC
2013-04-25 00:08:00,51.8,51.3,29.84,NW,315,0.0,-999.0,98,-99.99,,,0.00,Acu-Link.com,2013-04-25 07:08:00,
2013-04-25 00:23:00,51.8,51.3,29.84,North,0,1.7,-999.0,98,-99.99,,,0.00,Acu-Link.com,2013-04-25 07:23:00,
2013-04-25 00:39:00,51.6,51.1,29.85,NNW,337,1.7,-999.0,98,-99.99,,,0.00,Acu-Link.com,2013-04-25 07:39:00,
2013-04-25 00:54:00,51.8,51.3,29.85,WNW,292,3.2,-999.0,98,-99.99,,,0.00,Acu-Link.com,2013-04-25 07:54:00,
2013-04-25 01:09:00,51.6,51.1,29.85,West,270,1.7,-999.0,98,-99.99,,,0.00,Acu-Link.com,2013-04-25 08:09:00,
2013-04-25 01:24:00,51.6,51.1,29.85,NE,45,1.1,-999.0,98,-99.99,,,0.00,Acu-Link.com,2013-04-25 08:24:00,
2013-04-25 01:40:00,51.3,50.8,29.84,NNW,337,1.7,-999.0,98,-99.99,,,0.00,Acu-Link.com,2013-04-25 08:40:00,
2013-04-25 01:55:00,51.3,50.8,29.84,NNW,337,2.2,-999.0,98,-99.99,,,0.00,Acu-Link.com,2013-04-25 08:55:00,
2013-04-25 02:10:00,51.4,50.9,29.84,NNW,337,2.2,-999.0,98,-99.99,,,0.00,Acu-Link.com,2013-04-25 09:10:00,
2013-04-25 02:25:00,51.6,51.1,29.84,WNW,292,2.7,-999.0,98,-99.99,,,0.00,Acu-Link.com,2013-04-25 09:25:00,
2013-04-25 02:40:00,51.6,51.1,29.84,East,90,1.1,-999.0,98,-99.99,,,0.00,Acu-Link.com,2013-04-25 09:40:00,
2013-04-25 02:55:00,51.4,50.9,29.84,NE,45,1.1,-999.0,98,-99.99,,,0.00,Acu-Link.com,2013-04-25 09:55:00,
2013-04-25 03:10:00,51.1,50.6,29.84,West,270,1.7,-999.0,98,-99.99,,,0.00,Acu-Link.com,2013-04-25 10:10:00,
2013-04-25 03:25:00,51.1,50.6,29.84,WNW,292,1.7,-999.0,98,-99.99,,,0.00,Acu-Link.com,2013-04-25 10:25:00,
2013-04-25 03:41:00,51.1,50.6,29.84,WNW,292,2.2,-999.0,98,-99.99,,,0.00,Acu-Link.com,2013-04-25 10:41:00,
2013-04-25 03:56:00,51.1,50.6,29.85,WNW,292,1.7,-999.0,98,-99.99,,,0.00,Acu-Link.com,2013-04-25 10:56:00,
2013-04-25 04:11:00,51.3,50.8,29.85,NW,315,0.0,-999.0,98,-99.99,,,0.00,Acu-Link.com,2013-04-25 11:11:00,
2013-04-25 04:26:00,51.3,50.8,29.85,NW,315,0.0,-999.0,98,-99.99,,,0.00,Acu-Link.com,2013-04-25 11:26:00,
2013-04-25 04:41:00,51.3,50.8,29.86,NNW,337,0.0,-999.0,98,-99.99,,,0.00,Acu-Link.com,2013-04-25 11:41:00,
2013-04-25 04:56:00,51.4,50.9,29.86,West,270,1.1,-999.0,98,-99.99,,,0.00,Acu-Link.com,2013-04-25 11:56:00,
2013-04-25 05:11:00,51.6,51.1,29.86,ESE,112,2.2,-999.0,98,-99.99,,,0.00,Acu-Link.com,2013-04-25 12:11:00,
2013-04-25 05:26:00,51.6,51.1,29.87,WNW,292,1.1,-999.0,98,-99.99,,,0.00,Acu-Link.com,2013-04-25 12:26:00,
2013-04-25 05:41:00,52.0,51.5,29.88,SSE,157,0.0,-999.0,98,-99.99,,,0.00,Acu-Link.com,2013-04-25 12:41:00,
2013-04-25 05:57:00,52.5,52.0,29.88,West,270,1.1,-999.0,98,-99.99,,,0.00,Acu-Link.com,2013-04-25 12:57:00,
2013-04-25 06:12:00,52.9,52.4,29.90,SW,225,0.0,-999.0,98,-99.99,,,0.00,Acu-Link.com,2013-04-25 13:12:00,
2013-04-25 06:27:00,53.2,52.6,29.90,West,270,4.2,-999.0,98,-99.99,,,0.00,Acu-Link.com,2013-04-25 13:27:00,
2013-04-25 06:42:00,53.4,52.6,29.91,NE,45,0.0,-999.0,97,-99.99,,,0.00,Acu-Link.com,2013-04-25 13:42:00,
2013-04-25 06:57:00,53.6,52.5,29.91,WNW,292,1.7,-999.0,96,-99.99,,,0.00,Acu-Link.com,2013-04-25 13:57:00,
2013-04-25 07:12:00,53.8,52.7,29.91,West,270,1.7,-999.0,96,-99.99,,,0.00,Acu-Link.com,2013-04-25 14:12:00,
2013-04-25 07:27:00,54.1,52.7,29.92,NNW,337,2.7,-999.0,95,-99.99,,,0.00,Acu-Link.com,2013-04-25 14:27:00,
2013-04-25 07:42:00,54.7,53.0,29.92,NE,45,2.2,-999.0,94,-99.99,,,0.00,Acu-Link.com,2013-04-25 14:42:00,
2013-04-25 07:57:00,55.4,53.1,29.93,North,0,1.7,-999.0,92,-99.99,,,0.00,Acu-Link.com,2013-04-25 14:57:00,
2013-04-25 08:13:00,56.7,53.8,29.93,NNE,22,1.7,-999.0,90,-99.99,,,0.00,Acu-Link.com,2013-04-25 15:13:00,
2013-04-25 08:28:00,57.0,53.5,29.93,ESE,112,2.2,-999.0,88,-99.99,,,0.00,Acu-Link.com,2013-04-25 15:28:00,
2013-04-25 08:43:00,57.6,53.8,29.94,West,270,2.2,-999.0,87,-99.99,,,0.00,Acu-Link.com,2013-04-25 15:43:00,
2013-04-25 08:58:00,58.1,53.9,29.94,NE,45,1.7,-999.0,86,-99.99,,,0.00,Acu-Link.com,2013-04-25 15:58:00,
2013-04-25 09:13:00,58.8,54.3,29.94,SSW,202,1.1,-999.0,85,-99.99,,,0.00,Acu-Link.com,2013-04-25 16:13:00,
2013-04-25 09:28:00,59.4,54.2,29.94,NW,315,2.2,-999.0,83,-99.99,,,0.00,Acu-Link.com,2013-04-25 16:28:00,
2013-04-25 09:43:00,59.9,54.4,29.95,WNW,292,3.7,-999.0,82,-99.99,,,0.00,Acu-Link.com,2013-04-25 16:43:00,
2013-04-25 09:59:00,61.5,55.3,29.95,South,180,2.2,-999.0,80,-99.99,,,0.00,Acu-Link.com,2013-04-25 16:59:00,
2013-04-25 10:14:00,62.1,55.2,29.95,West,270,1.7,-999.0,78,-99.99,,,0.00,Acu-Link.com,2013-04-25 17:14:00,
2013-04-25 10:29:00,63.0,55.7,29.95,WNW,292,1.1,-999.0,77,-99.99,,,0.00,Acu-Link.com,2013-04-25 17:29:00,
2013-04-25 10:44:00,64.0,55.9,29.96,NW,315,1.7,-999.0,75,-99.99,,,0.00,Acu-Link.com,2013-04-25 17:44:00,
2013-04-25 10:59:00,64.6,56.1,29.96,NNE,22,2.2,-999.0,74,-99.99,,,0.00,Acu-Link.com,2013-04-25 17:59:00,
2013-04-25 11:14:00,66.4,56.7,29.96,NNE,22,1.1,-999.0,71,-99.99,,,0.00,Acu-Link.com,2013-04-25 18:14:00,
2013-04-25 11:30:00,65.8,56.1,29.95,SW,225,2.2,-999.0,71,-99.99,,,0.00,Acu-Link.com,2013-04-25 18:30:00,
2013-04-25 11:45:00,66.7,55.8,29.95,NNE,22,1.1,-999.0,68,-99.99,,,0.00,Acu-Link.com,2013-04-25 18:45:00,
2013-04-25 12:00:00,68.2,56.8,29.95,East,90,1.1,-999.0,67,-99.99,,,0.00,Acu-Link.com,2013-04-25 19:00:00,
2013-04-25 12:15:00,68.2,56.4,29.95,ENE,67,1.7,-999.0,66,-99.99,,,0.00,Acu-Link.com,2013-04-25 19:15:00,
2013-04-25 12:31:00,68.9,57.1,29.94,NNW,337,3.7,-999.0,66,-99.99,,,0.00,Acu-Link.com,2013-04-25 19:31:00,
2013-04-25 12:53:00,69.4,57.1,29.94,East,90,2.2,-999.0,65,-99.99,,,0.00,Acu-Link.com,2013-04-25 19:53:00,
2013-04-25 13:08:00,71.4,58.1,29.93,South,180,2.7,-999.0,63,-99.99,,,0.00,Acu-Link.com,2013-04-25 20:08:00,
2013-04-25 13:23:00,70.9,58.1,29.93,ESE,112,2.7,-999.0,64,-99.99,,,0.00,Acu-Link.com,2013-04-25 20:23:00,
2013-04-25 13:38:00,71.1,58.3,29.93,South,180,1.1,-999.0,64,-99.99,,,0.00,Acu-Link.com,2013-04-25 20:38:00,
2013-04-25 13:54:00,71.4,57.7,29.94,NNW,337,1.1,-999.0,62,-99.99,,,0.00,Acu-Link.com,2013-04-25 20:54:00,
2013-04-25 14:10:00,72.1,58.8,29.93,NNE,22,2.7,-999.0,63,-99.99,,,0.00,Acu-Link.com,2013-04-25 21:10:00,
2013-04-25 14:25:00,71.4,57.7,29.94,NNE,22,4.2,-999.0,62,-99.99,,,0.00,Acu-Link.com,2013-04-25 21:25:00,
2013-04-25 14:40:00,71.8,58.1,29.94,NW,315,4.2,-999.0,62,-99.99,,,0.00,Acu-Link.com,2013-04-25 21:40:00,